TimeEST,TemperatureF,Dew PointF,Humidity,Sea Level PressureIn,VisibilityMPH,Wind Direction,Wind SpeedMPH,Gust SpeedMPH,PrecipitationIn,Events,Conditions,WindDirDegrees,DateUTC
12:53 AM,34.0,28.0,79,29.81,10.0,NNE,12.7,18.4,N/A,,Overcast,30,2013-03-05 05:53:00
2:53 AM,33.1,28.0,82,29.85,10.0,NNE,11.5,20.7,N/A,,Scattered Clouds,30,2013-03-05 07:53:00
3:44 AM,33.8,28.4,81,29.85,10.0,NNE,8.1,-,N/A,,Mostly Cloudy,30,2013-03-05 08:44:00
3:53 AM,33.1,28.0,82,29.88,10.0,NNE,10.4,-,N/A,,Mostly Cloudy,30,2013-03-05 08:53:00
4:33 AM,33.8,26.6,75,29.86,10.0,NE,15.0,20.7,N/A,,Overcast,40,2013-03-05 09:33:00
4:53 AM,33.1,27.0,78,29.90,10.0,NNE,9.2,-,N/A,,Overcast,30,2013-03-05 09:53:00
5:49 AM,33.8,26.6,75,29.90,10.0,North,9.2,-,N/A,,Overcast,10,2013-03-05 10:49:00
5:53 AM,33.1,27.0,78,29.93,10.0,North,8.1,-,N/A,,Overcast,10,2013-03-05 10:53:00
6:38 AM,33.8,28.4,81,29.92,10.0,NNE,9.2,-,N/A,,Overcast,20,2013-03-05 11:38:00
6:53 AM,33.1,28.0,82,29.96,10.0,NNE,10.4,-,N/A,,Overcast,20,2013-03-05 11:53:00
7:53 AM,33.8,28.4,81,29.94,10.0,NNE,10.4,-,N/A,,Overcast,20,2013-03-05 12:53:00
8:44 AM,33.8,28.4,81,29.96,10.0,NNE,9.2,-,0.00,,Overcast,20,2013-03-05 13:44:00
8:53 AM,34.0,28.0,79,29.99,8.0,NNE,8.1,-,0.00,Snow,Light Snow,20,2013-03-05 13:53:00
9:53 AM,35.1,27.0,72,30.01,9.0,NE,13.8,23.0,0.00,Snow,Light Snow,40,2013-03-05 14:53:00
10:53 AM,37.0,28.0,70,30.01,10.0,NE,16.1,27.6,0.00,,Overcast,50,2013-03-05 15:53:00
11:30 AM,37.4,28.4,70,30.00,10.0,ENE,15.0,19.6,N/A,,Overcast,60,2013-03-05 16:30:00
11:39 AM,37.4,26.6,65,30.00,10.0,ENE,17.3,24.2,N/A,,Overcast,60,2013-03-05 16:39:00
11:53 AM,37.0,27.0,67,30.03,10.0,NE,16.1,24.2,N/A,,Overcast,50,2013-03-05 16:53:00
12:53 PM,37.0,28.0,70,30.05,10.0,NE,10.4,21.9,N/A,,Overcast,50,2013-03-05 17:53:00
1:30 PM,37.4,28.4,70,30.03,10.0,ENE,12.7,23.0,N/A,,Overcast,60,2013-03-05 18:30:00
1:53 PM,37.0,28.0,70,30.07,10.0,NE,12.7,21.9,N/A,,Overcast,50,2013-03-05 18:53:00
2:53 PM,37.0,28.0,70,30.10,10.0,NE,15.0,26.5,N/A,,Overcast,50,2013-03-05 19:53:00
3:19 PM,35.6,26.6,70,30.08,10.0,NNE,17.3,27.6,N/A,,Overcast,30,2013-03-05 20:19:00
3:44 PM,35.6,26.6,70,30.08,10.0,NE,11.5,25.3,N/A,,Overcast,50,2013-03-05 20:44:00
3:53 PM,36.0,27.0,70,30.12,10.0,NE,18.4,27.6,N/A,,Overcast,50,2013-03-05 20:53:00
4:33 PM,35.6,26.6,70,30.11,10.0,NE,19.6,29.9,N/A,,Overcast,50,2013-03-05 21:33:00
4:53 PM,34.0,26.1,73,30.14,10.0,ENE,15.0,26.5,N/A,,Overcast,60,2013-03-05 21:53:00
5:53 PM,33.1,27.0,78,30.17,10.0,NE,11.5,21.9,N/A,,Overcast,50,2013-03-05 22:53:00
6:53 PM,33.1,27.0,78,30.20,10.0,ENE,12.7,23.0,N/A,,Overcast,60,2013-03-05 23:53:00
7:49 PM,32.0,26.6,80,30.18,10.0,NE,16.1,27.6,N/A,,Overcast,50,2013-03-06 00:49:00
7:53 PM,32.0,26.1,79,30.22,10.0,ENE,15.0,24.2,N/A,,Mostly Cloudy,60,2013-03-06 00:53:00
8:04 PM,32.0,26.6,80,30.18,10.0,ENE,15.0,24.2,N/A,,Overcast,70,2013-03-06 01:04:00
8:53 PM,32.0,25.0,75,30.24,10.0,ENE,11.5,24.2,N/A,,Overcast,60,2013-03-06 01:53:00
9:53 PM,30.9,25.0,79,30.24,10.0,ENE,13.8,21.9,N/A,,Overcast,60,2013-03-06 02:53:00
10:53 PM,30.0,24.1,79,30.25,10.0,ENE,15.0,25.3,N/A,,Overcast,70,2013-03-06 03:53:00
11:53 PM,30.0,24.1,79,30.27,10.0,ENE,12.7,21.9,N/A,,Overcast,60,2013-03-06 04:53:00